Location: Unspecified
(52.4292°N, 19.3359°E)
Time: 16:03:43
(UTC+02:00)

Transit 2A Rocket - Pass Details

Date: 28 May 2024
Orbit: 583 x 910 km, 66.7° (Epoch: 14 June)

Event Time Altitude Azimuth Distance (km) Brightness Sun altitude
Rises 09:43:17 0° 318° (NW) 3,350 7.9 44.3°
Reaches altitude 10° 09:45:52 10° 327° (NNW) 2,462 7.4 44.6°
Maximum altitude 09:51:09 36° 33° (NNE) 1,371 6.8 45.3°
Drops below altitude 10° 09:56:39 10° 99° (E) 2,582 8.6 46.1°
Sets 09:59:26 0° 108° (ESE) 3,534 9.1 46.4°
